Regional Weather Roundup
Issued by NWS

Home | Current Version | Previous Version | Graphics & Text | Print | Product List | Glossary On
Versions: 1 2 3 4 5 6 7 8 9 10 11 12 13 14 15 16 17 18 19 20 21 22 23 24 25 26 27
000
ASUS45 KCYS 201010
RWRWY

WYOMING REGIONAL WEATHER ROUNDUP
NATIONAL WEATHER SERVICE CHEYENNE WY
400 AM MDT SUN MAY 20 2018

NOTE:  "FAIR" INDICATES FEW OR NO CLOUDS BELOW 12,000 FEET
WITH NO SIGNIFICANT WEATHER AND/OR OBSTRUCTIONS TO VISIBILITY.

WYZ001-201100-
YELLOWSTONE NATIONAL PARK

CITY           SKY/WX    TMP DP  RH WIND       PRES   REMARKS
LK YELLOWSTONE   N/A     32  30  92 CALM      30.20S
W YELLOWSTONE  NOT AVBL

$$
WYZ002>013-054>058-071-098>099-201100-
NORTHERN WYOMING

CITY           SKY/WX    TMP DP  RH WIND       PRES   REMARKS
JACKSON        FAIR      38  36  92 CALM      30.15S
CODY           FAIR      37  35  92 W3        30.15S
GREYBULL       FAIR      47  42  83 E8        30.13F
WORLAND        FAIR      46  41  82 SE10      30.13F
SHERIDAN       FAIR      40  38  93 S5        30.13F
BUFFALO        FAIR      42  40  92 S18       30.16S
GILLETTE       FAIR      40  35  83 S13       30.21S WCI  32
NEWCASTLE      FAIR      37  36  93 E6        30.25F WCI  33

$$
WYZ014>020-022>026-101>103-201100-
CENTRAL WYOMING

CITY           SKY/WX    TMP DP  RH WIND       PRES   REMARKS
BIG PINEY      FAIR      40  37  89 W6        30.18F
PINEDALE       CLOUDY    36  36 100 CALM      30.19S
DUBOIS         CLOUDY    37  36  93 CALM      30.18S
LANDER         CLOUDY    44  41  89 NW8       30.16S
RIVERTON       CLOUDY    43  40  89 NW6       30.16F
CASPER         CLOUDY    40  40 100 E7        30.19F
DOUGLAS        CLOUDY    40  39  97 SE14      30.23F WCI  32

$$
WYZ021-027>030-104>119-201100-
SOUTHERN WYOMING

CITY           SKY/WX    TMP DP  RH WIND       PRES   REMARKS
EVANSTON       FAIR      42  39  89 E14       30.12S
KEMMERER       FAIR      37  36  93 NE6       30.16S WCI  33
FORT BRIDGER   FAIR      38  38 100 NE8       30.17S WCI  33
ROCK SPRINGS   MOCLDY    37  36  96 E9        30.16F WCI  30
DIXON          FAIR      37  33  89 NE7       30.16S WCI  31
RAWLINS        MOCLDY    37  36  96 NE14      30.17F WCI  28
SARATOGA       FAIR      30  30 100 W5        30.17F WCI  25
LARAMIE        FAIR      30  30 100 SE8       30.19S WCI  22
CHEYENNE       FOG       37  37 100 E5        30.21F VSB 1/4 WCI  33
TORRINGTON     CLOUDY    42  41  96 N5        30.22F
PINE BLUFFS    CLOUDY    37  37 100 CALM      30.22F

$$




USA.gov is the U.S. government's official web portal to all federal, state and local government web resources and services.